INTELSAT 37E (IS-37E)

Last updated on Sun Jun 21 2026 00:03:07 GMT+0000 (Coordinated Universal Time)

1 42950U 17059A 26171.38843046 -.00000145 00000+0 00000+0 0 9994 2 42950 0.0188 18.2553 0002602 94.8556 277.3301 1.00271079 32094
UTC large
Height (km)
Speed (km/s)
/
Latitude / Longitude
Inclination (degrees)
Orbital Period (minutes)
Azimuth
Elevation
Range (km)
Doppler Factor

Next 0 passes for location: London (51.5072 / 0.1276)

No passes found over London.
INTELSAT 37E (IS-37E)